Date String (YYYY-MM-DD hh:mm:ss) UTC,Instrument flags,absolute air pressure of the measurement (hPa),sample flow rate (lpm),inlet stack bypass flow (lpm),air temperature of the measurement (°C),ambient temperature measured by the external sensor (°C),aerosol sample conditioner tube jacket temperature (°C),OPC LED temperature (°C),internal box temperature (°C),relative humidity of the measurement (%),span deviation,mass concentration of particles derived from Lorenz-Mie calculation of OPC scattering (μg/m³),mass concentration of particles derived from Lorenz-Mie calculation of OPC scattering (μg/m³),mass concentration of particles derived from Lorenz-Mie calculation of OPC scattering (μg/m³)
DateTimeUTC,F1_M11,P_M11,Q1_M11,Q2_M11,T1_M11,T2_M11,T3_M11,T4_M11,T5_M11,U1_M11,ZSPAN_M11,X0_M11,X2_M11,X1_M11
2023-12-13 23:00:00,SystemResetWarning,0837.2,5.00,000.00,018.8,017.8,000.0,027.1,020.0,22.7,0000.4,0017.70,0015.28,0014.91
2023-12-13 23:01:00,SystemResetWarning,0837.2,5.01,000.00,018.8,017.8,000.0,027.1,020.0,22.8,0000.4,0017.69,0015.28,0014.91
2023-12-13 23:02:00,SystemResetWarning,0837.2,5.00,000.00,018.8,017.8,000.0,027.1,020.0,22.7,0000.4,0017.77,0015.32,0014.94
2023-12-13 23:03:00,SystemResetWarning,0837.3,5.00,000.00,018.8,017.8,000.0,027.1,020.0,22.8,0000.4,0017.72,0015.30,0014.94
2023-12-13 23:04:00,SystemResetWarning,0837.3,5.00,000.00,018.8,017.8,000.0,027.1,020.0,22.8,0000.3,0017.74,0015.28,0014.93
2023-12-13 23:05:00,SystemResetWarning,0837.2,5.00,000.00,018.8,017.8,000.0,027.1,020.0,22.8,0000.1,0017.86,0015.32,0014.95
2023-12-13 23:06:00,SystemResetWarning,0837.2,5.00,000.00,018.8,017.8,000.0,027.1,020.0,22.7,0000.0,0017.93,0015.32,0014.96
2023-12-13 23:07:00,SystemResetWarning,0837.3,4.99,000.00,018.8,017.8,000.0,027.1,020.0,22.7,-000.0,0018.63,0015.35,0014.97
2023-12-13 23:08:00,SystemResetWarning,0837.4,4.99,000.00,018.8,017.9,000.0,027.1,020.0,22.6,-000.1,0018.64,0015.35,0014.98
2023-12-13 23:09:00,SystemResetWarning,0837.4,5.00,000.00,018.8,017.9,000.0,027.1,020.0,22.6,-000.0,0018.79,0015.38,0015.01
2023-12-13 23:10:00,SystemResetWarning,0837.4,5.00,000.00,018.8,017.9,000.0,027.1,020.0,22.5,-000.2,0018.81,0015.40,0015.03
2023-12-13 23:11:00,SystemResetWarning,0837.4,5.00,000.00,018.8,017.9,000.0,027.1,020.0,22.4,-000.3,0018.81,0015.41,0015.03
2023-12-13 23:12:00,SystemResetWarning,0837.4,5.00,000.00,018.8,017.9,000.0,027.1,020.0,22.4,-000.3,0018.84,0015.42,0015.04
2023-12-13 23:13:00,SystemResetWarning,0837.4,5.01,000.00,018.8,017.9,000.0,027.1,020.0,22.5,-000.5,0018.83,0015.41,0015.04
2023-12-13 23:14:00,SystemResetWarning,0837.4,5.00,000.00,018.8,017.9,000.0,027.1,020.0,22.5,-000.4,0018.91,0015.44,0015.05
2023-12-13 23:15:00,SystemResetWarning,0837.4,5.01,000.00,018.8,017.9,000.0,027.1,020.0,22.4,-000.3,0019.03,0015.49,0015.06
2023-12-13 23:16:00,SystemResetWarning,0837.4,5.00,000.00,018.8,017.9,000.0,027.1,020.0,22.3,-000.2,0018.92,0015.48,0015.05
2023-12-13 23:17:00,SystemResetWarning,0837.4,5.00,000.00,018.8,017.9,000.0,027.0,020.0,22.3,-000.1,0018.82,0015.47,0015.05
2023-12-13 23:18:00,SystemResetWarning,0837.4,5.00,000.00,018.8,017.9,000.0,027.0,020.0,22.3,-000.1,0018.33,0015.48,0015.05
2023-12-13 23:19:00,SystemResetWarning,0837.3,4.99,000.00,018.8,017.9,000.0,027.0,020.0,22.4,-000.3,0018.11,0015.46,0015.04
2023-12-13 23:20:00,SystemResetWarning,0837.3,5.00,000.00,018.8,017.9,000.0,027.0,020.0,22.5,-000.6,0018.02,0015.46,0015.04
2023-12-13 23:21:00,SystemResetWarning,0837.3,5.00,000.00,018.8,017.9,000.0,027.0,020.0,22.4,-000.5,0018.01,0015.47,0015.04
2023-12-13 23:22:00,SystemResetWarning,0837.4,5.00,000.00,018.8,017.9,000.0,027.1,020.0,22.2,-000.4,0018.00,0015.46,0015.04
2023-12-13 23:23:00,SystemResetWarning,0837.4,5.01,000.00,018.8,017.9,000.0,027.1,020.0,22.1,-000.2,0018.00,0015.48,0015.05
2023-12-13 23:24:00,SystemResetWarning,0837.4,5.01,000.00,018.8,017.9,000.0,027.1,020.0,22.1,-000.1,0018.18,0015.50,0015.04
2023-12-13 23:25:00,SystemResetWarning,0837.4,5.01,000.00,018.8,017.9,000.0,027.1,020.0,22.1,-000.1,0018.32,0015.51,0015.04
2023-12-13 23:26:00,SystemResetWarning,0837.3,5.00,000.00,018.8,017.9,000.0,027.1,020.0,22.0,-000.1,0018.32,0015.49,0015.05
2023-12-13 23:27:00,SystemResetWarning,0837.3,5.00,000.00,018.8,017.9,000.0,027.1,020.0,22.0,-000.1,0018.48,0015.50,0015.05
2023-12-13 23:28:00,SystemResetWarning,0837.3,4.99,000.00,018.8,017.9,000.0,027.1,020.0,21.9,-000.2,0018.58,0015.57,0015.09
2023-12-13 23:29:00,SystemResetWarning,0837.4,4.99,000.00,018.8,017.9,000.0,027.1,020.0,21.9,-000.2,0018.60,0015.60,0015.12
2023-12-13 23:30:00,SystemResetWarning,0837.4,5.00,000.00,018.8,017.9,000.0,027.1,020.0,22.0,-000.2,0018.87,0015.63,0015.13
2023-12-13 23:31:00,SystemResetWarning,0837.4,5.00,000.00,018.8,017.9,000.0,027.1,020.0,22.2,0000.0,0019.08,0015.65,0015.15
2023-12-13 23:32:00,SystemResetWarning,0837.3,5.00,000.00,018.8,017.9,000.0,027.1,020.0,22.1,-000.0,0019.53,0015.66,0015.15
2023-12-13 23:33:00,SystemResetWarning,0837.3,4.99,000.00,018.8,017.9,000.0,027.1,020.0,22.0,0000.1,0019.58,0015.68,0015.16
2023-12-13 23:34:00,SystemResetWarning,0837.3,5.00,000.00,018.8,017.9,000.0,027.1,020.0,21.9,-000.1,0019.61,0015.68,0015.16
2023-12-13 23:35:00,SystemResetWarning,0837.2,5.00,000.00,018.8,017.9,000.0,027.1,020.0,21.9,-000.3,0019.65,0015.71,0015.17
2023-12-13 23:36:00,SystemResetWarning,0837.2,5.00,000.00,018.8,017.9,000.0,027.1,020.0,21.9,-000.4,0019.50,0015.70,0015.16
2023-12-13 23:37:00,SystemResetWarning,0837.2,5.00,000.00,018.8,017.9,000.0,027.1,020.1,21.9,-000.4,0019.50,0015.72,0015.17
2023-12-13 23:38:00,SystemResetWarning,0837.3,5.00,000.00,018.8,017.9,000.0,027.1,020.0,21.9,-000.5,0019.29,0015.73,0015.19
2023-12-13 23:39:00,SystemResetWarning,0837.2,5.00,000.00,018.8,017.9,000.0,027.1,020.1,21.9,-000.5,0019.74,0015.73,0015.21
2023-12-13 23:40:00,SystemResetWarning,0837.3,5.00,000.00,018.8,017.9,000.0,027.1,020.1,21.9,-000.2,0020.25,0015.74,0015.23
2023-12-13 23:41:00,SystemResetWarning,0837.4,5.01,000.00,018.8,017.9,000.0,027.1,020.1,22.1,-000.1,0020.34,0015.79,0015.26
2023-12-13 23:42:00,SystemResetWarning,0837.3,5.01,000.00,018.8,017.9,000.0,027.1,020.1,22.1,0000.1,0020.04,0015.81,0015.27
2023-12-13 23:43:00,SystemResetWarning,0837.2,5.00,000.00,018.8,018.0,000.0,027.1,020.1,22.1,0000.3,0020.16,0015.83,0015.29
2023-12-13 23:44:00,SystemResetWarning,0837.2,5.00,000.00,018.8,018.0,000.0,027.1,020.1,22.1,0000.3,0020.57,0015.92,0015.39
2023-12-13 23:45:00,SystemResetWarning,0837.2,5.00,000.00,018.8,018.0,000.0,027.1,020.1,22.1,0000.2,0020.80,0016.08,0015.56
2023-12-13 23:46:00,SystemResetWarning,0837.3,5.00,000.00,018.8,018.0,000.0,027.1,020.1,22.1,0000.3,0020.85,0016.17,0015.68
2023-12-13 23:47:00,SystemResetWarning,0837.2,5.00,000.00,018.8,018.0,000.0,027.1,020.1,22.0,0000.5,0020.74,0016.15,0015.68
2023-12-13 23:48:00,SystemResetWarning,0837.2,5.00,000.00,018.8,018.0,000.0,027.1,020.1,21.9,0000.8,0020.95,0016.17,0015.69
2023-12-13 23:49:00,SystemResetWarning,0837.2,5.00,000.00,018.8,018.0,000.0,027.1,020.1,21.9,0000.8,0021.18,0016.21,0015.71
2023-12-13 23:50:00,SystemResetWarning,0837.2,5.00,000.00,018.8,018.0,000.0,027.1,020.1,22.0,0000.9,0020.91,0016.22,0015.73
2023-12-13 23:51:00,SystemResetWarning,0837.2,5.00,000.00,018.8,018.0,000.0,027.1,020.1,22.0,0000.9,0020.31,0016.25,0015.75
2023-12-13 23:52:00,SystemResetWarning,0837.2,5.00,000.00,018.8,018.0,000.0,027.1,020.1,22.0,0001.0,0020.34,0016.25,0015.76
2023-12-13 23:53:00,SystemResetWarning,0837.2,5.00,000.00,018.8,018.0,000.0,027.1,020.1,22.1,0001.2,0020.36,0016.30,0015.80
2023-12-13 23:54:00,SystemResetWarning,0837.3,5.00,000.00,018.8,018.0,000.0,027.1,020.1,22.2,0001.2,0020.21,0016.35,0015.84
2023-12-13 23:55:00,SystemResetWarning,0837.3,5.00,000.00,018.9,018.0,000.0,027.1,020.1,22.2,0001.1,0019.58,0016.31,0015.79
2023-12-13 23:56:00,SystemResetWarning,0837.2,4.99,000.00,018.9,018.0,000.0,027.1,020.1,22.3,0001.1,0019.43,0016.15,0015.62
2023-12-13 23:57:00,SystemResetWarning,0837.2,5.00,000.00,018.9,018.0,000.0,027.1,020.1,22.3,0001.3,0019.35,0016.07,0015.50
2023-12-13 23:58:00,SystemResetWarning,0837.4,5.00,000.00,018.9,018.0,000.0,027.1,020.1,22.2,0001.1,0019.55,0016.14,0015.52
2023-12-13 23:59:00,SystemResetWarning,0837.2,4.99,000.00,018.9,018.0,000.0,027.1,020.1,22.2,0001.1,0019.46,0016.15,0015.53
